Wind_Speed
7 4 1 4 5 5 6 7 7 5 4 4 2 2 4 5 6 2 3 6 1 1 7 6 5 7 8 9 8 9 16 17 15 15 17 20 22 27 30 31 32 30 31 31 29 27 27 28 26 26 25 23 25 27 28 30 30 30 30 30 30 28 25 24 24 24 23 22 21 20 19 17 15 14 14 14 13 11 10 9 8 7 7 8 7 6
5 5 5 6 7 7 6 6 6 4 2 1 2 3 4 5 6 3 3 7 3 3 6 3 4 8 9 9 9 7 10 12 17 17 19 23 25 28 31 31 33 31 30 30 29 28 28 28 27 27 27 27 28 28 28 29 29 29 29 28 29 26 24 24 25 25 23 22 21 20 19 17 15 14 14 14 12 11 10 9 8 7 7 7 6 6
1 3 7 7 8 6 4 5 6 4 2 1 1 1 4 4 4 5 4 4 1 3 4 5 5 9 11 10 7 7 8 14 26 29 28 29 27 28 31 31 32 30 30 32 32 30 30 29 29 29 29 29 30 29 29 29 28 28 27 28 28 25 24 25 25 25 23 21 20 18 17 16 14 14 14 13 12 11 10 10 9 7 7 7 6 7
2 5 7 8 7 7 3 4 6 3 0 2 3 2 5 2 1 4 5 5 3 2 5 6 6 8 9 8 6 8 11 15 25 29 30 34 34 36 37 36 35 33 34 36 34 32 30 29 30 31 31 31 31 31 30 31 30 27 25 27 27 24 24 25 25 24 22 21 19 17 16 15 14 14 14 14 12 11 11 10 9 8 8 8 7 7
5 6 4 6 6 7 5 2 5 3 3 3 5 6 5 3 3 6 4 5 6 4 4 3 5 6 5 4 6 6 8 11 13 17 21 30 36 37 35 35 36 36 38 39 36 33 31 31 32 32 32 32 32 31 29 30 30 26 24 26 26 24 25 25 24 23 22 22 20 18 18 17 16 16 15 15 14 13 12 10 9 8 8 7 6 6
7 7 5 6 4 6 5 3 4 6 3 4 5 9 10 7 8 9 3 4 5 5 3 1 2 5 5 4 6 5 6 7 5 11 18 26 30 29 30 33 35 35 36 38 37 34 32 32 32 33 34 34 33 32 30 29 28 24 25 26 25 25 25 24 23 22 22 22 21 21 21 20 19 18 17 16 15 13 11 10 9 9 8 7 6 6
4 5 7 6 5 5 5 4 5 7 4 3 5 10 11 9 8 8 2 3 1 3 3 3 3 5 7 5 6 6 5 6 3 6 13 22 27 28 32 35 35 35 35 37 37 35 34 34 34 34 35 34 33 32 31 30 27 23 25 27 26 25 25 24 23 23 23 23 22 22 21 20 19 18 17 15 13 11 10 10 10 9 9 8 7 7
3 5 5 5 5 5 3 4 5 8 7 3 5 7 8 8 8 6 4 4 4 3 4 3 4 3 6 5 6 6 4 6 4 4 9 18 26 29 33 33 34 37 38 40 39 36 36 36 36 35 35 35 32 31 30 29 26 23 25 27 26 25 25 25 24 24 24 23 23 23 21 19 18 16 15 14 13 12 11 11 10 10 10 9 9 8
4 6 7 7 5 4 5 5 7 9 5 6 6 6 7 7 7 5 6 5 3 1 5 5 2 2 5 5 5 4 3 5 4 4 6 14 21 24 28 29 32 37 39 40 40 38 38 37 36 36 36 34 31 30 29 27 24 22 25 27 26 26 26 26 24 23 23 22 22 22 20 19 18 16 14 13 14 14 12 11 11 11 10 9 9 8
2 5 8 8 5 5 7 5 9 11 6 5 5 4 3 3 3 4 5 4 1 1 5 6 2 2 5 5 5 4 3 4 5 4 5 11 16 18 20 22 26 33 36 39 40 39 38 37 36 36 35 33 31 30 28 25 23 23 25 26 26 27 27 25 24 23 23 22 21 21 21 20 19 17 15 15 15 14 13 12 11 11 11 10 9 8
2 1 3 6 6 7 6 5 9 13 9 2 4 4 4 3 3 3 2 3 3 2 6 7 6 4 3 5 3 2 2 4 6 6 5 8 14 19 19 19 25 31 32 36 39 39 38 37 36 35 34 33 30 29 27 25 24 24 25 26 26 27 27 25 24 24 23 22 22 22 21 20 18 17 16 15 15 13 12 12 11 11 11 11 10 9
4 1 1 4 9 7 4 3 6 8 6 2 2 3 3 2 3 4 4 3 3 5 6 6 5 5 3 5 4 5 6 6 6 7 6 6 12 17 17 17 25 30 29 32 37 37 37 36 35 34 33 31 29 27 26 25 24 25 25 26 27 28 26 24 24 24 24 23 23 22 21 18 16 15 14 13 12 12 11 10 10 10 10 10 9 8
4 4 3 4 8 8 5 2 3 3 0 4 3 3 3 2 2 2 3 0 2 6 5 3 3 3 4 5 5 7 8 7 6 8 8 7 10 15 15 16 24 29 27 30 35 35 36 36 34 33 32 29 27 26 25 25 25 25 25 26 28 28 26 25 25 25 25 24 23 22 19 17 15 12 10 9 9 10 9 8 8 8 8 8 8 7
3 5 3 1 4 7 8 4 2 1 2 5 5 4 4 1 2 1 3 0 3 6 3 2 3 2 3 3 4 6 6 7 9 7 7 6 7 12 14 15 21 27 27 28 30 30 32 33 32 32 30 27 25 23 23 24 24 25 25 26 28 28 26 26 26 26 25 24 22 21 18 16 13 10 7 7 8 8 7 6 6 6 6 6 5 6
1 4 3 3 1 3 7 7 6 4 4 5 4 5 4 4 4 3 3 2 4 4 2 2 1 2 2 2 4 4 4 8 10 7 2 2 3 8 12 13 18 24 26 26 27 27 27 27 27 28 27 24 22 22 22 23 24 25 25 27 29 28 26 26 27 26 25 24 22 20 18 16 13 8 6 7 7 6 7 7 5 4 4 4 3 3
2 4 7 4 1 3 4 6 5 6 2 3 3 4 2 5 5 2 3 4 3 1 2 2 2 3 3 2 5 2 4 8 10 9 7 6 5 8 9 9 13 17 18 17 16 17 17 18 20 22 22 21 22 22 23 23 25 26 27 29 30 29 27 27 26 24 23 24 23 20 18 16 13 9 8 8 8 8 7 6 5 3 3 2 2 2
2 4 6 5 4 4 5 5 5 5 3 1 3 3 3 4 7 4 2 0 3 1 3 1 1 4 2 1 5 2 5 7 9 9 8 8 8 9 9 9 10 10 11 12 9 9 8 9 13 16 18 20 22 24 24 23 25 27 28 29 30 30 28 27 25 24 24 24 22 20 18 17 14 11 10 10 9 9 9 7 5 3 2 2 2 2
3 3 6 3 4 6 3 2 3 3 5 4 3 5 2 2 4 3 2 2 4 2 4 1 1 4 1 1 4 4 6 6 7 7 7 8 9 8 8 8 9 10 13 17 17 15 12 11 12 13 15 18 22 23 23 22 23 24 25 28 30 29 28 27 25 25 26 24 22 20 19 18 16 13 12 10 9 9 9 8 6 3 2 2 1 1
3 2 6 2 4 7 5 2 2 4 1 4 4 4 3 2 1 1 2 1 1 2 3 3 2 2 2 3 3 4 5 5 6 7 7 6 7 7 7 6 8 9 11 16 20 17 13 12 13 14 14 17 20 21 21 21 21 21 23 26 28 27 27 25 25 26 26 24 22 20 19 18 17 14 12 10 10 10 10 8 6 4 2 2 1 1
2 1 5 4 4 5 5 3 1 4 4 2 2 2 2 2 4 2 2 3 2 2 2 2 3 2 4 3 2 2 4 5 5 6 6 5 5 4 5 7 7 9 10 12 15 11 8 9 13 14 14 15 17 18 20 18 16 17 20 24 27 28 26 24 24 24 25 24 21 20 19 18 16 14 12 11 11 12 11 9 7 5 2 2 1 1
2 1 3 5 5 2 2 1 2 3 1 1 2 2 1 1 2 2 1 1 2 3 3 1 1 4 4 2 2 1 4 5 5 5 5 4 5 5 5 8 11 11 11 9 9 9 9 8 9 12 14 13 13 15 16 13 12 14 20 26 28 28 26 24 24 24 23 21 20 20 19 18 16 14 12 12 14 14 12 9 7 5 3 1 0 1
1 2 2 3 4 2 4 5 2 1 2 3 3 4 3 2 3 2 1 2 2 3 3 4 2 5 4 1 1 2 4 5 6 7 6 6 7 8 9 10 11 9 8 7 6 7 8 8 8 9 12 11 11 12 13 11 12 17 24 28 29 27 26 25 24 24 22 20 20 21 20 18 16 13 13 14 15 14 12 9 7 5 3 2 1 1
2 3 1 2 2 4 8 7 2 1 2 1 1 3 3 3 4 5 3 3 1 2 2 3 1 4 4 1 2 4 5 8 11 10 9 11 12 13 14 15 13 10 7 6 6 6 7 10 11 10 11 11 11 12 13 13 14 18 23 27 28 27 27 25 23 23 23 23 22 22 20 17 15 14 14 14 15 14 11 9 6 5 4 3 2 2
1 3 1 3 3 5 7 5 2 3 4 4 3 2 2 2 3 5 4 3 3 2 2 3 0 4 3 1 3 6 8 11 14 13 11 12 14 16 17 19 18 14 12 10 9 8 9 11 12 8 8 11 12 13 14 14 14 15 19 23 25 26 26 24 23 24 25 25 24 22 21 18 16 15 15 15 14 13 11 9 7 6 5 4 4 3
0 1 2 1 3 5 5 5 4 4 3 2 2 4 3 2 5 4 2 3 2 3 4 4 3 4 1 2 4 8 10 10 11 13 14 13 15 17 18 19 19 17 15 15 13 10 9 10 12 9 7 9 10 11 14 16 15 15 17 19 20 22 22 21 22 24 26 26 24 22 21 19 17 15 15 15 14 12 11 10 8 7 6 6 5 5
2 1 2 3 3 3 1 2 3 3 2 1 1 5 5 1 5 4 3 3 1 3 3 5 4 3 3 5 6 8 9 7 7 11 15 16 17 19 21 20 18 16 16 16 14 12 9 8 11 11 8 8 8 9 13 16 16 16 17 17 17 19 20 20 21 23 25 26 25 24 22 20 18 16 15 14 14 12 11 10 9 8 7 7 6 6
3 2 2 3 3 4 4 5 5 2 1 2 4 6 6 4 2 4 4 2 3 3 1 4 5 5 6 7 7 6 6 6 5 7 12 15 17 20 23 21 18 16 15 15 15 13 11 9 9 9 8 9 10 9 10 12 14 14 14 15 16 17 19 20 21 23 24 26 26 26 24 22 19 17 15 14 13 11 10 10 10 9 8 8 6 6
4 3 2 3 3 1 3 5 4 2 3 2 3 5 7 7 5 5 4 3 4 6 2 5 4 7 7 7 7 5 5 5 5 8 11 13 15 19 22 22 21 19 16 15 14 14 13 10 7 8 10 11 11 10 9 8 9 11 12 15 18 19 21 23 24 24 25 27 28 27 26 25 21 17 15 14 13 11 11 11 11 10 9 8 7 6
5 1 0 3 2 2 2 4 4 3 4 3 4 5 7 8 6 5 2 3 4 5 4 3 6 6 5 7 7 5 6 8 8 10 12 13 15 19 23 23 23 23 20 18 16 15 15 12 9 11 14 15 12 11 11 8 9 16 18 18 20 21 24 26 27 27 28 29 28 27 27 26 22 19 16 14 13 13 13 13 13 12 10 9 8 7
4 1 2 3 2 4 5 5 5 4 3 2 5 6 6 6 6 6 3 1 3 4 4 7 9 5 4 6 7 8 11 13 14 15 15 16 17 19 23 25 25 24 22 21 20 18 17 16 15 15 17 16 12 10 12 12 13 19 21 21 21 22 23 26 27 28 29 28 26 26 27 27 27 24 19 16 14 15 16 16 15 14 12 10 9 9
2 2 1 2 2 3 5 6 6 5 4 3 6 9 10 8 6 6 4 2 3 5 7 9 8 5 4 6 11 14 15 15 17 17 18 19 19 21 23 25 26 25 24 24 23 21 19 19 18 18 19 19 16 12 13 14 15 18 18 18 20 20 20 21 19 21 25 25 23 23 23 24 27 24 19 18 17 17 17 17 16 16 14 12 11 11
2 2 1 2 2 1 4 5 6 6 4 4 8 11 12 8 4 4 3 2 1 5 9 8 5 3 3 7 12 14 14 15 15 15 17 18 21 24 26 25 26 26 26 27 26 24 22 21 21 21 20 20 18 15 14 14 15 16 15 14 14 16 17 16 12 15 21 23 21 19 18 20 24 22 19 19 20 19 18 18 17 17 15 14 13 13
2 3 2 2 2 2 3 3 4 5 4 3 5 7 7 5 4 4 3 4 4 3 7 4 3 6 6 9 12 11 11 13 13 14 16 17 19 24 26 25 26 28 28 28 27 27 26 24 23 23 22 21 19 18 15 12 13 14 14 14 12 11 12 12 10 14 20 20 19 18 18 20 23 22 20 22 23 21 18 18 17 17 16 15 15 15
2 3 1 2 2 1 3 2 2 2 1 2 3 3 4 4 5 4 4 6 6 2 5 4 7 9 7 8 11 11 10 13 14 15 17 17 18 21 23 24 26 28 29 29 29 29 29 28 28 27 26 25 24 23 20 17 16 17 16 15 13 12 11 11 11 14 17 18 16 16 16 17 18 19 20 21 21 20 18 17 17 16 16 16 16 16
3 3 1 1 2 1 1 3 2 1 1 1 1 4 4 4 3 3 5 8 8 6 10 10 9 9 9 10 14 18 19 19 19 17 17 17 17 18 21 24 26 28 29 28 28 28 28 29 29 29 30 29 29 28 27 25 24 22 20 18 16 15 14 14 14 15 15 15 13 12 12 13 14 17 18 19 19 18 17 16 15 15 15 15 16 16
5 4 2 1 1 1 1 2 2 1 1 1 1 5 5 4 4 3 4 8 9 5 8 10 8 9 13 14 17 23 27 27 25 20 18 19 17 17 20 24 25 26 26 26 26 26 25 25 26 27 27 27 27 29 29 29 28 27 26 24 21 20 18 17 16 16 15 14 12 10 10 11 13 16 16 16 16 16 15 15 14 14 13 13 14 15
5 4 3 2 1 2 2 1 1 1 2 1 2 4 4 3 3 3 2 4 6 6 5 11 11 10 12 15 19 24 27 27 21 16 16 20 18 17 20 22 23 24 23 23 23 23 22 21 21 22 22 23 24 25 26 27 26 28 28 27 25 24 23 20 18 16 15 15 14 11 10 10 10 11 10 10 12 13 13 14 13 12 11 11 11 12
4 3 3 3 1 2 3 2 2 2 1 1 2 4 6 7 4 2 1 1 4 5 6 12 12 10 12 15 16 16 16 16 9 5 12 19 18 18 20 20 21 21 21 21 21 21 20 18 17 17 17 19 21 20 19 19 20 22 23 22 21 22 22 22 20 17 16 16 15 13 11 11 10 8 7 7 10 11 13 14 12 10 11 11 10 10
7 4 4 4 2 2 4 3 1 1 1 2 4 6 10 11 6 1 1 1 3 5 9 15 15 14 14 12 10 8 8 7 2 3 13 19 17 17 18 18 19 19 19 19 19 19 19 17 16 15 13 14 16 15 14 12 12 15 17 16 15 15 17 18 16 14 13 12 11 10 9 8 7 6 5 5 7 7 9 10 7 6 8 10 9 8
7 5 4 4 3 3 3 2 1 1 1 2 5 10 14 11 3 1 1 2 2 7 12 15 17 16 14 12 10 7 5 5 7 11 16 19 17 17 17 18 19 18 18 18 17 17 17 15 14 15 15 16 16 14 12 9 8 11 14 14 13 13 14 15 14 13 12 10 9 8 6 5 3 1 1 2 3 3 4 6 5 4 5 8 8 7
4 4 3 4 3 3 3 3 1 1 2 3 10 17 15 5 1 2 2 2 4 11 12 12 15 15 12 11 9 5 5 13 20 21 18 16 16 17 18 18 19 19 19 19 17 16 16 15 15 17 18 17 15 13 11 9 10 13 14 13 13 14 15 14 13 12 11 10 9 8 7 6 4 2 3 3 4 4 6 7 9 9 9 10 10 11
3 3 3 3 2 2 3 2 0 1 1 7 17 18 8 1 0 2 2 1 7 13 12 11 13 11 8 9 12 15 19 23 25 22 18 17 18 18 18 18 19 20 19 18 17 16 17 18 18 19 19 17 15 13 11 9 12 14 12 11 14 15 14 13 12 11 11 10 9 9 8 7 7 6 5 6 6 5 6 8 9 10 11 12 12 13
2 1 2 2 1 1 2 3 2 1 3 14 19 11 3 3 1 2 6 8 10 14 13 12 11 9 11 17 22 25 25 23 21 21 21 20 19 18 17 18 19 19 17 17 16 15 15 17 18 18 18 16 14 13 11 10 12 13 12 13 15 15 13 12 12 12 12 11 11 10 9 9 9 9 9 9 8 8 8 8 9 10 11 12 13 13
3 2 2 0 1 2 2 2 1 1 7 14 11 3 2 4 1 8 11 13 14 14 14 14 13 15 23 28 26 23 22 21 21 22 22 21 19 17 17 17 16 16 15 14 14 12 12 14 16 17 16 14 13 12 11 11 12 12 13 15 16 15 14 14 14 13 12 11 10 10 9 9 10 10 11 11 11 10 10 10 10 11 12 12 13 14
2 1 3 2 1 3 4 1 1 3 7 8 6 6 5 6 8 12 16 18 17 15 16 19 21 24 28 30 27 24 23 23 23 22 21 20 18 17 16 16 14 14 13 12 11 10 9 11 13 13 14 13 12 12 12 13 13 12 14 15 15 15 15 15 14 13 12 11 10 10 9 9 9 9 10 11 11 12 12 12 11 12 12 13 14 14
0 1 3 3 2 4 6 5 4 5 7 7 8 9 10 13 15 16 19 21 20 19 20 23 25 25 25 27 27 25 23 22 22 21 19 18 17 16 16 16 15 13 12 11 10 9 9 10 10 10 11 12 11 11 12 13 13 13 14 14 14 14 14 14 13 13 12 12 12 12 11 11 11 11 11 11 12 13 13 13 13 13 13 14 14 15
3 4 3 3 2 3 3 4 5 6 7 8 11 13 14 16 18 18 19 20 18 17 18 20 21 20 20 22 23 23 21 19 18 17 16 15 15 14 14 14 14 13 12 11 10 9 8 9 10 10 10 10 10 10 11 12 12 13 13 13 13 13 12 12 12 12 12 12 12 13 13 13 13 13 13 13 13 13 13 14 14 14 14 14 14 15
3 5 4 2 3 2 1 3 4 8 9 9 12 15 16 18 19 18 18 17 16 15 15 15 16 16 17 18 19 19 18 15 13 13 13 12 12 11 11 12 13 13 12 10 8 7 7 8 9 10 10 10 10 10 10 11 11 11 11 12 12 12 12 12 13 14 14 14 14 14 15 15 14 14 14 13 13 13 13 13 13 12 12 12 13 13
4 3 2 2 3 3 1 1 3 8 11 12 13 16 18 19 19 19 18 17 16 16 17 16 15 14 15 16 15 14 14 12 10 9 9 8 8 8 9 10 10 11 12 11 8 5 5 5 7 7 8 9 9 9 9 10 10 9 10 12 12 12 13 14 15 15 16 16 16 16 17 17 16 15 14 14 14 13 12 12 11 11 10 12 13 13
3 1 1 3 3 1 2 2 2 4 5 7 11 15 18 17 17 17 16 15 14 15 15 14 13 11 11 11 11 9 10 11 9 6 6 6 6 6 7 8 9 10 11 11 8 4 3 3 4 4 5 6 7 7 7 8 8 7 8 10 11 12 13 14 15 16 17 17 17 17 18 18 18 17 15 15 15 12 9 8 10 10 10 10 11 12
2 3 2 3 3 2 5 5 4 5 6 7 10 14 16 15 14 14 13 12 11 11 11 12 12 11 9 10 9 7 8 9 7 5 4 4 4 4 5 6 7 8 10 10 7 4 2 2 2 2 3 4 5 5 6 7 6 5 6 8 10 11 12 14 15 16 16 18 18 19 19 19 19 18 16 15 15 12 7 5 5 7 8 8 8 9
Wind_Direction
156 152 176 205 197 181 203 199 183 178 144 141 176 220 234 252 274 251 235 259 227 347 282 265 259 273 278 277 276 224 199 201 206 197 187 184 182 186 192 198 202 203 205 211 216 216 216 217 219 220 222 223 220 219 216 216 218 215 208 207 209 207 198 190 187 185 184 184 185 186 188 189 187 186 189 191 194 200 207 217 222 208 198 206 206 199
132 169 223 208 186 181 188 183 161 151 152 161 220 279 278 246 266 282 249 256 203 168 260 279 320 292 274 272 271 222 189 200 205 192 186 188 186 189 194 199 202 204 206 210 216 217 216 215 217 219 220 221 222 221 218 217 219 216 211 209 210 206 196 189 186 185 185 187 186 186 187 186 184 184 190 193 193 199 207 211 213 204 193 198 198 192
123 218 224 197 180 165 128 125 133 143 173 167 160 260 276 257 287 299 282 287 101 149 261 308 323 290 278 275 265 216 192 212 212 200 190 187 183 189 196 199 201 202 204 209 215 216 215 213 215 218 218 218 220 222 221 221 221 217 211 211 211 205 194 188 187 186 186 186 184 185 187 185 182 184 189 190 190 194 202 205 206 198 183 184 191 190
211 244 219 184 161 145 130 123 124 113 140 174 171 212 265 272 12 291 296 323 326 239 251 287 304 284 282 291 284 241 230 237 226 209 194 187 186 194 200 201 200 200 202 207 213 215 214 212 214 217 216 216 218 221 224 224 222 217 210 210 209 201 192 188 187 187 186 185 183 184 186 185 183 185 187 187 186 190 196 197 193 186 177 175 181 183
223 234 171 132 141 156 184 181 139 168 279 250 209 212 248 251 208 237 280 331 323 306 239 254 321 299 287 305 304 277 265 266 236 201 187 190 194 199 201 201 202 202 203 206 209 211 211 210 210 214 215 216 217 219 223 223 220 216 210 207 203 197 192 190 187 184 184 185 184 184 184 185 184 183 185 185 184 184 187 187 182 179 176 172 172 174
245 233 150 117 138 160 178 218 186 183 234 297 236 214 224 225 225 240 277 15 357 333 283 86 12 300 302 301 286 303 322 308 235 177 180 190 195 197 197 200 204 205 205 207 207 205 206 207 207 209 213 215 216 218 222 222 219 214 209 205 201 195 193 190 185 182 184 185 185 187 187 186 185 184 184 184 183 178 175 174 173 175 177 176 175 171
248 209 167 155 161 148 163 237 223 166 142 308 244 206 210 213 228 243 222 89 151 262 287 63 106 271 306 313 290 303 330 334 301 189 186 188 191 194 198 201 202 202 203 205 207 206 205 207 206 205 210 214 215 218 220 220 219 213 206 204 201 195 192 187 182 183 187 187 186 190 192 191 189 186 184 183 179 172 170 171 171 175 178 179 178 172
181 165 166 158 149 145 169 239 219 153 130 258 237 178 182 200 220 218 150 165 229 263 316 21 121 241 293 285 290 309 348 358 333 221 199 190 192 196 199 200 199 200 201 202 205 205 204 205 204 203 208 212 214 218 219 218 219 211 202 201 199 194 189 184 183 187 190 188 187 190 192 194 193 189 184 179 173 171 173 175 174 176 179 179 176 170
167 169 182 162 143 167 201 209 182 155 158 242 221 166 170 185 194 174 147 193 245 4 310 306 135 205 276 275 304 344 28 353 311 258 232 205 201 202 201 201 200 200 201 202 203 202 201 203 202 203 208 211 213 218 220 218 217 210 200 197 195 192 188 184 185 190 192 191 189 189 193 195 193 190 187 179 171 170 173 175 178 179 179 180 177 172
190 195 189 156 147 202 216 199 163 166 204 228 172 141 118 115 133 133 143 167 82 62 254 260 192 197 275 290 324 9 31 324 291 283 259 219 214 212 208 206 202 199 199 201 202 199 200 201 201 204 208 211 213 217 220 219 215 207 197 195 194 192 188 185 186 190 191 191 189 191 195 195 192 189 188 181 172 169 170 175 180 180 180 181 180 179
292 283 169 154 185 204 202 193 175 186 202 158 107 95 62 45 58 74 99 106 85 278 248 233 206 192 267 290 298 305 297 285 280 290 276 222 216 214 212 210 202 198 198 199 198 199 201 203 202 205 209 211 213 216 218 217 212 204 196 194 194 191 189 187 187 189 192 192 190 192 194 193 194 192 188 181 171 169 173 176 178 177 178 179 180 183
329 335 185 212 214 196 158 196 211 211 207 113 77 89 81 323 22 41 354 53 104 258 260 233 196 165 215 264 272 278 281 273 263 269 265 228 218 216 214 208 199 198 201 200 200 202 203 203 203 205 209 210 211 214 215 214 210 202 195 195 194 190 189 188 188 190 193 193 191 191 192 193 196 195 186 178 173 174 174 171 167 167 169 170 171 175
311 237 246 256 227 198 159 213 293 316 123 126 128 103 94 308 17 35 298 44 190 253 253 201 167 166 223 239 266 296 305 299 280 261 249 229 216 214 210 201 196 199 205 205 205 205 203 202 203 205 207 208 209 211 213 211 207 201 196 196 194 190 190 190 191 193 193 193 191 188 190 194 197 193 182 178 179 177 168 156 149 146 146 150 151 153
306 298 283 263 252 207 169 173 264 287 152 148 156 147 143 146 74 280 267 267 257 268 268 195 181 237 265 238 261 299 328 332 326 297 245 226 216 207 199 192 192 200 208 211 209 205 202 203 204 205 206 205 207 210 211 209 206 201 197 196 194 191 192 192 193 194 193 191 189 188 190 194 195 187 176 181 183 172 158 147 137 126 122 127 131 137
192 318 261 193 255 192 172 195 204 168 154 171 166 140 147 161 151 206 221 200 247 271 316 293 186 184 219 222 256 287 8 11 6 13 112 155 198 193 186 184 189 201 213 218 216 210 207 208 207 206 205 203 205 208 210 208 205 202 197 194 194 193 194 196 195 193 191 189 189 190 192 196 194 186 182 189 183 169 160 151 142 130 116 111 113 121
147 261 254 244 242 161 193 227 174 121 142 211 146 112 162 189 155 152 192 177 189 249 335 291 215 212 209 255 291 314 48 33 26 35 62 88 130 154 161 167 176 193 209 220 227 222 216 217 214 208 204 203 204 205 208 208 205 201 196 194 195 196 197 199 196 193 191 190 191 192 195 198 193 190 200 200 187 174 165 157 153 147 124 106 94 87
113 259 273 305 284 209 209 222 174 151 188 198 129 171 220 175 129 116 201 112 79 162 274 269 267 300 323 332 314 12 63 38 32 36 44 65 100 126 136 137 133 147 175 197 233 258 256 242 224 211 206 203 202 204 207 209 206 202 197 195 195 196 200 199 195 193 192 190 193 196 198 196 192 195 207 206 192 177 166 164 171 164 142 125 93 59
142 260 286 312 285 271 262 220 214 178 150 128 182 209 197 95 94 110 167 13 41 216 272 333 284 299 348 221 307 20 61 38 33 36 39 54 70 88 111 136 137 128 144 173 201 225 243 250 234 218 211 207 204 206 208 208 207 203 197 196 195 196 199 198 195 195 194 192 193 197 196 193 192 199 205 204 195 179 169 170 175 172 162 147 118 41
132 269 295 290 262 292 336 32 315 323 94 146 185 171 122 130 193 86 150 164 129 217 285 325 301 265 205 212 307 25 53 41 32 29 33 46 52 60 77 111 154 154 146 165 186 203 222 234 229 217 214 214 209 209 212 211 205 197 192 194 197 199 199 197 197 198 196 193 194 197 198 196 197 199 199 198 194 181 175 177 177 179 178 151 139 21
98 197 282 284 267 297 351 25 289 303 345 33 115 113 78 139 168 166 151 165 170 178 238 313 332 277 227 218 278 357 53 61 51 38 37 40 43 53 71 86 120 155 163 166 175 189 207 220 222 215 216 220 215 214 217 210 191 184 191 195 198 202 200 199 201 201 197 194 194 198 201 202 200 196 193 194 190 182 180 183 182 185 187 155 134 5
55 110 248 286 315 346 357 314 233 208 184 94 140 192 279 91 142 165 86 86 125 150 176 182 300 271 251 238 269 330 76 84 81 73 62 55 66 85 105 99 108 142 169 169 164 180 195 204 211 210 212 215 215 219 220 199 171 180 199 204 204 203 201 200 202 202 198 193 193 197 201 203 200 194 193 193 188 185 184 184 184 190 203 191 149 341
102 126 206 294 349 348 245 252 262 206 184 173 169 178 183 148 126 141 273 321 82 124 163 160 214 267 269 243 220 93 87 89 90 89 73 57 63 78 97 103 105 130 168 184 176 175 191 210 219 211 205 200 201 214 217 204 194 198 201 205 206 204 201 202 203 200 197 195 194 196 198 199 199 197 196 194 190 187 186 185 186 197 218 239 265 278
143 114 143 270 266 253 263 266 260 91 72 74 137 146 142 129 120 138 197 249 95 97 149 124 132 264 268 251 132 103 88 83 82 81 70 57 51 55 72 88 97 113 135 160 173 157 161 194 212 213 200 193 197 204 205 209 213 207 203 205 207 205 203 205 204 199 196 194 193 194 195 196 199 200 200 197 195 192 188 187 191 208 236 257 264 260
78 88 60 299 295 295 301 314 355 61 65 42 358 30 104 146 141 145 173 175 141 159 155 97 279 261 276 280 136 107 83 77 76 75 73 64 54 53 65 78 84 95 105 110 128 134 128 149 169 176 173 181 198 201 196 201 209 210 210 209 207 206 206 205 204 201 197 195 193 194 196 197 197 201 203 201 199 196 192 193 200 215 241 260 266 269
345 70 97 35 330 331 338 346 346 357 33 59 346 336 329 127 112 117 145 98 121 202 160 131 223 257 254 164 139 104 83 73 72 77 79 72 64 62 70 79 79 81 86 90 104 121 120 127 144 154 155 163 184 204 206 205 207 211 213 210 206 207 206 205 205 204 202 199 196 195 197 199 201 204 206 204 202 199 198 202 210 222 240 255 261 269
142 119 110 145 214 230 231 249 250 267 325 2 359 342 335 43 111 129 136 100 166 219 146 144 203 235 185 153 127 103 96 89 77 79 82 80 77 74 75 81 82 79 78 76 84 101 108 118 141 158 167 165 176 209 221 215 210 208 204 202 204 206 205 205 206 206 206 204 198 195 196 199 202 203 206 206 205 202 203 211 221 231 243 247 246 254
106 61 68 123 166 198 203 230 248 230 81 345 333 345 344 341 33 99 112 142 188 169 175 224 191 157 162 150 116 94 92 92 72 65 72 75 78 81 80 81 83 80 77 74 76 86 95 103 121 135 149 157 163 180 197 206 207 200 193 195 204 208 208 209 210 208 209 208 202 197 197 198 198 198 202 208 210 208 210 219 228 236 242 241 241 244
105 46 31 103 89 263 230 257 293 27 93 64 349 348 347 348 10 75 120 181 153 128 227 256 159 139 154 135 114 106 95 90 59 44 53 60 69 81 85 84 83 81 80 81 81 78 81 87 91 95 107 116 123 136 154 187 195 176 175 194 205 210 210 210 212 212 213 214 210 201 198 197 194 192 199 210 216 216 218 226 232 234 233 232 235 236
119 75 242 131 68 8 354 338 353 62 106 93 46 16 356 358 23 62 113 199 143 137 206 191 122 124 130 114 112 110 94 87 74 62 63 64 66 77 86 85 80 78 80 82 82 79 78 80 86 92 98 101 103 120 135 145 151 151 165 188 200 209 210 206 207 211 212 212 208 201 199 201 200 198 205 216 221 221 225 230 231 229 225 223 227 224
109 105 197 147 57 14 11 4 16 60 99 83 45 29 11 7 32 52 50 195 131 129 145 122 105 82 69 97 101 91 88 88 84 78 75 72 70 75 82 84 82 81 82 81 79 81 83 84 91 100 107 112 118 134 136 135 149 159 168 182 192 200 204 201 200 200 199 200 198 195 198 205 209 210 213 219 223 226 230 231 230 227 221 218 222 218
77 133 181 117 85 355 356 0 7 28 56 58 30 19 12 13 29 37 28 23 71 97 104 102 97 68 49 87 99 96 94 91 86 82 78 78 81 82 80 82 85 87 88 86 83 84 86 89 94 100 108 115 123 134 133 131 149 162 165 174 184 192 198 200 194 186 188 192 194 194 195 201 207 212 215 219 224 229 231 232 231 225 220 220 222 213
58 127 110 77 127 275 339 352 351 360 18 30 20 8 360 2 11 351 330 324 339 125 119 112 114 118 109 104 98 92 90 87 85 87 87 86 89 91 88 86 88 90 90 90 90 88 87 89 93 98 104 109 114 120 122 122 133 143 147 155 170 183 193 198 188 176 182 188 192 194 196 200 206 211 216 221 228 234 235 235 231 222 220 223 218 207
79 122 121 110 142 265 320 350 357 3 359 336 348 351 337 324 322 319 323 339 339 125 135 143 136 126 134 124 104 90 84 85 83 86 89 89 90 94 96 94 93 93 92 91 91 91 90 90 92 96 101 104 106 108 112 119 124 126 129 137 148 163 177 183 177 173 177 182 188 193 196 202 207 211 215 218 225 233 235 232 226 219 219 219 211 205
92 103 98 132 125 323 321 16 52 48 345 275 282 318 314 310 335 357 21 8 359 68 108 102 112 116 122 120 111 105 94 88 89 92 94 93 90 91 96 97 96 96 94 93 91 89 89 90 91 93 95 98 102 106 111 117 117 116 120 130 141 149 152 155 161 169 175 179 182 186 193 203 208 209 209 209 213 218 220 218 217 217 217 214 211 212
110 100 61 95 105 91 9 45 79 137 280 266 293 336 328 309 333 31 52 29 25 78 99 92 98 108 104 100 107 111 106 99 94 90 90 92 91 91 95 97 99 101 99 97 94 91 89 88 88 88 88 91 95 101 105 108 109 112 116 125 134 139 140 142 143 147 159 165 163 166 175 184 195 200 199 198 201 204 204 205 209 212 213 214 216 219
136 127 102 69 71 117 71 30 93 164 298 313 5 2 359 350 348 7 46 36 21 36 94 96 90 97 102 103 109 112 110 105 95 83 85 93 93 92 95 97 101 103 101 99 99 96 95 92 89 87 86 87 88 91 94 97 100 103 105 108 115 121 128 136 134 126 133 144 148 156 157 157 177 191 187 185 194 196 191 193 199 203 205 209 216 222
130 133 123 79 66 137 116 37 64 77 3 22 27 357 346 333 329 331 8 40 24 13 86 110 107 102 104 107 111 113 109 101 88 73 86 100 100 97 96 96 98 99 97 95 95 94 94 96 96 95 95 94 90 87 89 91 91 91 90 91 94 100 108 117 117 110 113 124 134 145 142 139 161 176 166 169 188 192 188 190 196 201 203 209 217 225
90 128 140 119 84 102 103 83 40 29 4 344 334 323 321 314 294 251 268 29 41 44 103 121 116 114 116 112 112 114 106 94 75 61 96 105 105 101 98 96 97 97 96 94 93 91 91 94 96 98 99 99 94 90 92 96 96 94 91 88 88 90 94 97 97 97 101 106 111 116 118 120 130 133 128 149 173 181 187 193 197 199 206 214 219 224
45 52 91 94 56 55 93 102 79 98 246 305 306 312 329 330 312 234 102 9 53 85 120 126 123 128 130 119 106 105 99 87 73 143 116 109 106 103 99 97 96 95 95 94 93 93 94 94 96 97 96 92 86 81 84 93 101 101 95 91 91 94 92 88 81 78 83 88 89 92 95 99 111 122 130 151 162 169 183 195 196 192 202 213 216 217
32 26 41 61 49 38 70 83 68 70 286 309 313 318 327 329 307 134 34 347 95 119 130 130 131 135 131 111 95 90 99 126 152 144 123 111 108 106 100 94 90 89 91 92 92 94 96 97 100 100 94 85 79 75 76 82 93 94 87 84 87 86 80 72 62 53 55 58 58 59 59 61 77 113 216 218 211 219 233 243 255 257 234 228 229 235
24 22 42 79 72 32 49 83 58 315 275 302 320 321 323 324 137 91 345 310 120 128 134 132 130 130 123 110 103 97 126 138 137 132 125 121 121 115 105 95 88 87 91 95 97 99 99 98 97 95 89 83 79 79 80 84 90 87 81 79 77 69 60 54 47 39 36 33 32 30 26 24 23 355 318 297 277 273 274 272 275 279 273 263 261 264
20 19 24 56 60 28 67 97 349 273 274 333 329 325 331 56 101 353 4 64 135 138 138 127 125 128 117 107 115 122 128 131 130 129 130 134 130 119 108 97 90 90 96 102 103 103 101 98 95 92 88 83 79 76 72 74 81 79 75 72 66 56 47 38 31 24 19 14 10 6 1 357 353 344 333 322 313 305 296 288 285 285 282 278 276 275
31 50 34 23 19 53 66 49 39 156 323 337 335 333 20 50 333 105 75 84 123 138 135 123 125 136 126 115 118 125 130 132 132 132 133 134 128 117 107 98 92 94 102 106 106 105 103 100 96 92 88 84 79 72 62 59 65 64 59 57 52 41 29 22 16 10 6 3 359 354 349 344 340 338 335 331 327 321 312 303 298 295 291 287 284 282
15 75 124 279 329 68 71 31 45 274 316 333 346 8 27 4 127 136 107 97 110 123 123 115 115 125 127 123 123 127 132 133 130 128 127 125 119 112 105 99 96 98 102 104 104 103 100 97 94 91 88 83 77 71 59 52 53 50 45 43 37 27 20 17 12 9 6 4 3 360 354 350 346 341 337 336 333 330 327 321 312 306 302 298 295 292
12 104 125 106 57 90 99 82 350 346 339 350 31 72 70 82 122 131 119 110 110 114 116 113 112 118 124 125 126 127 128 129 127 123 120 116 111 104 99 96 96 98 100 101 102 98 92 90 89 88 86 79 70 61 52 44 38 37 37 35 27 20 18 16 13 12 12 12 13 12 8 3 358 351 345 341 337 334 332 328 323 317 311 307 303 301
329 112 118 101 71 71 68 52 26 16 20 42 75 90 96 106 114 115 111 107 107 111 115 117 119 124 126 126 124 124 127 129 127 123 119 114 109 104 99 95 94 96 98 99 97 92 88 88 85 82 82 78 67 54 46 37 30 29 32 30 23 20 19 17 17 17 17 16 14 10 7 2 356 352 348 343 337 334 329 325 322 318 315 312 309 306
10 50 80 85 64 73 60 9 358 14 27 48 79 94 100 105 107 106 105 106 109 112 114 119 125 128 129 127 122 122 128 131 127 124 122 116 110 104 96 90 85 82 84 90 91 89 87 88 87 84 81 79 69 54 43 34 29 30 33 31 28 27 24 23 25 25 23 20 16 9 4 359 353 348 344 339 336 332 326 321 319 317 316 314 311 309
360 39 59 69 55 79 198 295 5 53 62 66 83 92 98 104 106 105 106 110 114 114 115 120 123 122 125 126 123 124 131 133 128 127 125 115 104 93 83 76 69 62 64 72 81 86 86 89 93 92 87 83 76 63 49 41 38 40 42 40 37 33 28 26 29 29 26 23 19 13 7 1 355 349 344 339 337 333 327 322 320 321 321 317 314 313
332 1 16 67 58 40 354 304 53 71 70 70 83 96 103 106 106 107 111 114 114 115 118 122 123 122 124 128 129 130 134 136 133 126 114 98 84 72 62 55 47 43 45 48 55 72 82 86 93 91 85 82 78 66 54 46 45 48 48 44 40 34 28 27 29 30 29 26 21 15 10 5 359 354 350 348 346 343 339 334 330 331 331 325 321 319
25 78 50 73 73 6 257 213 143 97 83 78 91 107 115 114 111 113 118 118 117 120 124 127 131 134 134 138 142 141 136 134 129 111 90 74 56 42 36 33 30 29 29 30 36 50 74 93 95 83 73 72 66 57 48 37 33 40 43 40 34 29 27 28 29 29 29 26 21 16 12 8 4 360 357 354 352 354 357 350 340 337 335 329 325 322
55 170 184 123 126 198 203 183 140 105 108 111 114 120 124 124 120 119 121 121 122 127 129 127 130 137 141 143 147 144 132 125 113 87 68 61 47 37 33 26 24 26 27 29 33 35 56 103 97 66 60 60 50 42 31 18 13 23 34 33 29 24 24 27 26 25 23 20 16 13 10 7 5 3 1 358 356 360 9 15 358 344 339 335 329 324
Height
1473 1477 1479 1480 1480 1481 1481 1482 1482 1484 1485 1485 1486 1487 1487 1487 1483 1479 1480 1477 1475 1478 1475 1471 1471 1470 1468 1466 1465 1465 1466 1466 1465 1466 1468 1470 1471 1471 1472 1473 1474 1475 1477 1478 1481 1482 1484 1485 1487 1488 1489 1490 1491 1492 1496 1498 1501 1503 1505 1507 1508 1510 1511 1513 1514 1516 1519 1521 1523 1526 1528 1531 1533 1535 1537 1538 1540 1541 1542 1543 1543 1544 1545 1545 1546 1547
1473 1477 1478 1477 1478 1478 1479 1481 1482 1483 1484 1485 1486 1486 1486 1486 1482 1477 1478 1475 1474 1477 1474 1470 1472 1470 1466 1464 1462 1463 1464 1463 1461 1462 1465 1466 1468 1469 1469 1471 1472 1474 1476 1478 1479 1480 1481 1483 1485 1487 1488 1488 1489 1491 1494 1497 1499 1502 1504 1506 1507 1509 1511 1512 1514 1516 1518 1520 1522 1525 1528 1530 1533 1535 1537 1538 1540 1541 1542 1542 1543 1544 1545 1545 1546 1547
1476 1477 1475 1475 1476 1477 1479 1481 1482 1483 1484 1485 1486 1487 1486 1484 1481 1478 1476 1473 1474 1476 1472 1470 1471 1467 1462 1461 1460 1459 1459 1457 1454 1455 1458 1461 1464 1467 1467 1468 1470 1472 1474 1475 1476 1477 1478 1481 1483 1484 1486 1487 1488 1490 1492 1495 1497 1500 1503 1505 1506 1508 1510 1512 1514 1515 1517 1520 1523 1525 1528 1531 1533 1535 1537 1538 1539 1540 1541 1542 1543 1544 1544 1545 1546 1547
1478 1475 1472 1473 1474 1476 1479 1480 1482 1483 1484 1485 1486 1487 1485 1482 1482 1481 1477 1474 1473 1475 1472 1469 1471 1466 1459 1458 1456 1456 1455 1452 1451 1452 1454 1457 1459 1460 1461 1463 1466 1468 1469 1471 1473 1475 1476 1478 1480 1481 1483 1485 1486 1488 1490 1493 1495 1498 1501 1503 1505 1507 1509 1511 1513 1515 1518 1520 1523 1526 1528 1531 1533 1535 1536 1538 1539 1540 1541 1542 1542 1543 1544 1545 1546 1547
1474 1470 1469 1472 1474 1475 1477 1479 1481 1483 1484 1484 1483 1483 1482 1481 1482 1481 1478 1476 1473 1471 1470 1470 1471 1464 1456 1456 1454 1453 1454 1451 1451 1453 1455 1456 1456 1457 1459 1461 1463 1464 1465 1468 1470 1472 1474 1476 1477 1479 1481 1483 1485 1487 1489 1491 1494 1497 1499 1501 1504 1506 1509 1511 1513 1516 1518 1520 1523 1525 1528 1530 1532 1534 1536 1537 1538 1539 1540 1541 1542 1543 1544 1545 1545 1546
1470 1467 1468 1471 1473 1474 1476 1477 1479 1481 1483 1483 1479 1476 1477 1477 1478 1477 1478 1480 1478 1474 1469 1470 1475 1467 1454 1455 1456 1455 1455 1452 1451 1453 1453 1454 1455 1457 1459 1460 1462 1463 1465 1467 1468 1470 1472 1474 1476 1478 1480 1481 1482 1485 1487 1490 1493 1495 1498 1500 1503 1506 1508 1511 1513 1516 1518 1520 1523 1524 1526 1528 1531 1533 1535 1537 1538 1540 1540 1541 1542 1543 1543 1544 1545 1546
1467 1465 1466 1469 1471 1474 1476 1476 1476 1478 1483 1483 1473 1468 1471 1474 1475 1477 1480 1482 1480 1476 1470 1470 1478 1475 1459 1454 1458 1459 1456 1453 1453 1453 1452 1452 1454 1455 1456 1456 1458 1461 1463 1466 1468 1470 1471 1473 1475 1476 1478 1479 1481 1483 1486 1488 1492 1494 1497 1500 1503 1506 1509 1511 1514 1516 1518 1520 1522 1524 1526 1529 1531 1533 1535 1537 1539 1540 1541 1541 1542 1543 1544 1545 1545 1546
1463 1464 1466 1468 1470 1474 1475 1475 1473 1475 1480 1478 1468 1465 1469 1471 1474 1477 1480 1481 1478 1475 1473 1470 1474 1478 1468 1457 1460 1461 1456 1453 1455 1455 1453 1452 1451 1451 1452 1454 1455 1457 1460 1463 1465 1468 1470 1471 1473 1475 1476 1477 1480 1482 1484 1487 1491 1494 1496 1499 1503 1506 1509 1512 1514 1516 1518 1520 1522 1524 1527 1529 1531 1534 1536 1537 1539 1540 1540 1541 1542 1543 1544 1545 1545 1546
1460 1463 1464 1465 1469 1473 1471 1468 1469 1472 1474 1469 1465 1466 1467 1468 1471 1474 1477 1480 1479 1478 1477 1471 1471 1478 1470 1458 1461 1461 1455 1456 1456 1456 1456 1453 1452 1452 1452 1454 1454 1456 1459 1461 1464 1466 1468 1470 1472 1474 1475 1476 1479 1481 1483 1487 1490 1493 1496 1499 1503 1506 1509 1512 1514 1516 1518 1520 1522 1525 1527 1529 1532 1534 1536 1537 1538 1539 1540 1541 1542 1543 1545 1545 1546 1546
1459 1460 1460 1462 1467 1467 1463 1463 1465 1468 1468 1463 1464 1467 1466 1468 1471 1473 1476 1476 1479 1482 1478 1471 1470 1475 1469 1459 1462 1461 1456 1458 1458 1456 1456 1455 1456 1456 1455 1456 1456 1458 1460 1462 1464 1466 1467 1469 1471 1473 1474 1476 1478 1480 1483 1487 1490 1493 1497 1500 1503 1506 1509 1512 1515 1517 1519 1521 1523 1525 1527 1529 1532 1534 1536 1537 1538 1539 1540 1541 1543 1544 1545 1546 1546 1547
1458 1458 1458 1460 1461 1459 1458 1461 1462 1462 1462 1462 1464 1466 1467 1471 1470 1473 1477 1475 1481 1483 1474 1468 1467 1471 1471 1467 1467 1465 1460 1462 1461 1458 1456 1454 1456 1456 1456 1457 1457 1459 1461 1462 1464 1466 1467 1469 1470 1472 1473 1475 1477 1480 1483 1486 1489 1493 1497 1500 1503 1506 1509 1512 1515 1517 1519 1521 1523 1525 1528 1530 1532 1534 1535 1536 1537 1539 1540 1541 1543 1544 1545 1546 1546 1547
1459 1459 1458 1455 1454 1455 1456 1459 1460 1460 1461 1463 1465 1466 1469 1473 1472 1476 1477 1476 1485 1482 1469 1468 1469 1470 1472 1469 1469 1468 1463 1462 1461 1459 1457 1454 1455 1457 1457 1457 1458 1460 1462 1463 1464 1465 1466 1467 1468 1471 1472 1474 1477 1480 1483 1486 1489 1493 1497 1500 1503 1506 1509 1512 1515 1517 1519 1521 1523 1526 1528 1530 1533 1534 1536 1537 1538 1539 1540 1542 1543 1544 1545 1545 1546 1547
1458 1456 1456 1452 1451 1452 1455 1459 1461 1461 1463 1466 1468 1469 1474 1478 1479 1481 1481 1482 1485 1476 1468 1472 1472 1470 1469 1467 1469 1467 1460 1458 1457 1456 1455 1453 1454 1456 1457 1458 1459 1462 1463 1463 1464 1464 1465 1466 1467 1469 1471 1474 1477 1480 1483 1486 1489 1493 1497 1500 1504 1506 1509 1512 1514 1517 1519 1521 1523 1526 1528 1531 1533 1534 1536 1537 1539 1540 1541 1542 1543 1543 1545 1545 1546 1547
1460 1455 1453 1452 1450 1448 1451 1458 1460 1460 1463 1466 1467 1469 1475 1481 1484 1486 1487 1490 1484 1470 1469 1476 1472 1468 1467 1467 1469 1465 1459 1458 1455 1453 1453 1453 1454 1456 1457 1458 1459 1463 1464 1463 1465 1465 1466 1467 1468 1469 1471 1475 1478 1481 1484 1487 1490 1494 1497 1500 1503 1506 1509 1511 1514 1516 1518 1521 1523 1526 1529 1531 1533 1534 1536 1538 1539 1541 1541 1542 1543 1544 1544 1545 1546 1546
1465 1460 1452 1450 1449 1446 1448 1450 1450 1452 1459 1462 1461 1462 1466 1469 1474 1478 1478 1478 1474 1468 1469 1473 1470 1468 1466 1466 1466 1462 1459 1458 1455 1454 1453 1453 1455 1456 1457 1458 1459 1462 1464 1465 1466 1467 1468 1469 1469 1471 1473 1476 1480 1482 1485 1487 1490 1493 1496 1499 1501 1504 1508 1510 1513 1516 1518 1521 1524 1527 1529 1531 1533 1534 1536 1538 1540 1541 1542 1542 1543 1543 1544 1544 1545 1546
1467 1461 1450 1447 1447 1446 1446 1445 1444 1449 1456 1459 1459 1460 1462 1457 1457 1468 1475 1473 1471 1470 1471 1471 1470 1470 1467 1464 1463 1461 1460 1459 1458 1457 1455 1455 1456 1457 1458 1460 1460 1462 1463 1466 1469 1470 1471 1472 1472 1473 1476 1478 1481 1483 1485 1486 1489 1491 1494 1497 1500 1504 1507 1510 1513 1515 1519 1522 1524 1527 1529 1530 1532 1534 1536 1538 1539 1540 1541 1542 1543 1543 1544 1544 1545 1545
1465 1459 1448 1446 1445 1443 1444 1443 1442 1446 1451 1457 1459 1455 1454 1451 1450 1462 1476 1481 1478 1472 1472 1475 1472 1469 1467 1465 1463 1462 1461 1461 1460 1459 1458 1458 1457 1457 1459 1460 1461 1461 1460 1463 1470 1474 1475 1477 1477 1476 1478 1480 1482 1483 1484 1486 1488 1490 1493 1497 1500 1504 1507 1509 1512 1515 1518 1521 1524 1526 1528 1530 1531 1533 1535 1537 1539 1540 1541 1542 1543 1543 1544 1544 1545 1545
1461 1457 1448 1446 1445 1440 1441 1441 1441 1441 1444 1452 1455 1449 1449 1453 1453 1457 1467 1477 1480 1475 1473 1478 1477 1472 1470 1467 1465 1464 1463 1464 1463 1461 1461 1461 1460 1460 1460 1460 1461 1462 1460 1460 1466 1473 1476 1479 1480 1479 1479 1481 1482 1483 1485 1486 1489 1491 1494 1497 1500 1503 1506 1509 1511 1514 1517 1520 1523 1525 1527 1528 1530 1532 1535 1537 1538 1540 1541 1542 1543 1543 1544 1544 1545 1546
1458 1458 1451 1448 1448 1442 1439 1440 1442 1442 1441 1444 1444 1442 1447 1454 1457 1459 1464 1468 1475 1478 1476 1478 1482 1477 1469 1468 1469 1468 1467 1466 1466 1464 1464 1463 1463 1462 1462 1462 1462 1463 1463 1461 1464 1470 1474 1478 1480 1479 1479 1481 1482 1484 1486 1487 1489 1491 1495 1498 1501 1503 1506 1508 1510 1512 1516 1519 1522 1524 1526 1528 1530 1532 1535 1536 1538 1539 1540 1542 1542 1543 1544 1545 1546 1546
1456 1460 1456 1449 1447 1444 1441 1442 1445 1444 1443 1442 1443 1444 1447 1451 1453 1458 1461 1461 1464 1474 1478 1477 1478 1473 1468 1471 1474 1471 1470 1469 1467 1467 1467 1465 1465 1464 1463 1463 1463 1464 1467 1466 1465 1469 1473 1477 1479 1478 1479 1481 1482 1484 1486 1487 1489 1493 1497 1499 1500 1502 1504 1506 1509 1512 1515 1519 1521 1524 1526 1529 1531 1533 1534 1536 1537 1539 1540 1541 1542 1543 1544 1544 1545 1546
1455 1460 1459 1451 1446 1447 1446 1446 1448 1447 1445 1444 1445 1447 1448 1450 1452 1455 1460 1462 1461 1466 1476 1477 1472 1468 1470 1473 1473 1471 1470 1469 1468 1468 1467 1466 1465 1465 1464 1463 1462 1466 1470 1470 1468 1470 1472 1476 1478 1477 1479 1480 1482 1484 1485 1487 1490 1494 1498 1499 1499 1501 1503 1506 1508 1511 1515 1518 1521 1523 1526 1528 1531 1532 1534 1535 1537 1538 1540 1541 1542 1543 1544 1544 1545 1545
1454 1457 1459 1456 1452 1451 1448 1447 1448 1449 1448 1446 1444 1447 1450 1451 1451 1455 1462 1467 1463 1462 1471 1473 1465 1465 1471 1471 1469 1470 1469 1467 1468 1467 1467 1467 1466 1466 1466 1464 1463 1467 1471 1473 1472 1471 1472 1476 1479 1478 1479 1480 1481 1483 1485 1487 1490 1492 1494 1495 1497 1500 1503 1505 1507 1510 1513 1516 1519 1522 1525 1527 1530 1532 1533 1535 1536 1537 1539 1540 1542 1542 1543 1544 1544 1544
1451 1454 1458 1457 1455 1452 1448 1446 1448 1448 1449 1449 1446 1449 1453 1451 1449 1452 1457 1462 1466 1467 1471 1471 1464 1465 1471 1470 1467 1470 1469 1467 1468 1467 1467 1468 1467 1467 1467 1465 1464 1467 1471 1472 1472 1472 1473 1477 1480 1479 1479 1480 1481 1483 1485 1487 1488 1489 1490 1492 1496 1499 1502 1504 1506 1509 1511 1514 1517 1520 1523 1526 1528 1530 1532 1534 1535 1537 1538 1540 1541 1542 1543 1543 1544 1544
1452 1456 1458 1457 1454 1449 1445 1445 1447 1447 1449 1451 1452 1453 1454 1451 1450 1452 1454 1457 1462 1466 1467 1466 1466 1468 1471 1469 1468 1469 1470 1469 1468 1468 1469 1469 1469 1470 1469 1466 1466 1468 1470 1471 1471 1473 1475 1477 1480 1480 1480 1480 1480 1482 1485 1486 1487 1488 1489 1492 1495 1499 1502 1504 1506 1508 1510 1512 1516 1519 1522 1525 1527 1529 1531 1533 1535 1536 1538 1539 1540 1541 1542 1543 1543 1544
1454 1459 1461 1462 1462 1458 1453 1452 1450 1449 1451 1455 1458 1459 1456 1454 1453 1455 1459 1459 1459 1464 1462 1458 1463 1470 1470 1468 1469 1470 1471 1471 1470 1469 1470 1470 1470 1471 1469 1468 1468 1470 1471 1472 1472 1474 1476 1477 1478 1480 1480 1480 1481 1483 1484 1485 1486 1487 1489 1493 1496 1499 1502 1504 1506 1508 1510 1512 1516 1519 1522 1524 1526 1528 1531 1533 1534 1536 1537 1538 1539 1540 1541 1542 1543 1543
1456 1462 1463 1464 1468 1467 1464 1463 1459 1456 1456 1458 1460 1462 1460 1457 1453 1451 1456 1456 1456 1464 1463 1454 1459 1470 1471 1469 1470 1471 1472 1473 1473 1472 1471 1471 1471 1471 1470 1469 1470 1472 1473 1473 1474 1474 1476 1477 1478 1478 1479 1480 1482 1483 1484 1485 1486 1487 1490 1495 1498 1500 1502 1504 1506 1508 1510 1512 1514 1518 1522 1524 1526 1528 1531 1533 1534 1536 1536 1537 1538 1539 1540 1541 1542 1543
1459 1466 1467 1466 1467 1468 1467 1467 1465 1462 1461 1460 1461 1462 1462 1462 1457 1451 1451 1453 1455 1463 1464 1458 1462 1470 1470 1470 1473 1474 1474 1474 1475 1475 1474 1474 1474 1473 1472 1471 1472 1473 1474 1475 1476 1477 1478 1478 1478 1479 1479 1480 1482 1483 1484 1485 1486 1488 1493 1497 1500 1501 1502 1503 1504 1506 1509 1510 1512 1515 1520 1524 1526 1528 1530 1532 1534 1535 1535 1536 1537 1538 1540 1540 1541 1542
1458 1466 1470 1471 1471 1472 1471 1469 1467 1465 1465 1467 1467 1466 1464 1463 1459 1452 1449 1454 1457 1458 1459 1461 1466 1470 1469 1471 1475 1476 1477 1477 1477 1478 1478 1478 1478 1476 1474 1475 1475 1475 1476 1478 1480 1480 1480 1480 1480 1481 1481 1481 1483 1484 1486 1487 1487 1490 1495 1498 1499 1500 1501 1502 1503 1505 1507 1509 1510 1513 1517 1522 1524 1526 1529 1531 1533 1533 1534 1535 1536 1538 1539 1540 1541 1542
1458 1464 1470 1471 1472 1473 1473 1470 1468 1466 1469 1474 1474 1471 1468 1465 1462 1457 1458 1465 1462 1454 1455 1462 1468 1470 1471 1474 1477 1478 1478 1479 1480 1481 1481 1481 1481 1479 1478 1479 1479 1479 1479 1481 1482 1482 1482 1482 1482 1483 1482 1483 1485 1486 1487 1487 1489 1491 1494 1496 1498 1499 1500 1501 1503 1504 1506 1507 1509 1512 1515 1519 1523 1525 1527 1530 1531 1532 1533 1534 1536 1537 1538 1539 1540 1541
1459 1465 1469 1470 1469 1470 1470 1469 1469 1468 1467 1470 1475 1476 1474 1470 1467 1465 1467 1470 1465 1458 1460 1465 1469 1473 1475 1476 1478 1480 1480 1481 1482 1483 1483 1483 1483 1483 1482 1482 1483 1483 1484 1484 1484 1484 1484 1485 1485 1485 1485 1487 1489 1489 1488 1488 1489 1491 1491 1494 1497 1499 1500 1501 1502 1503 1505 1508 1510 1513 1515 1517 1521 1523 1526 1528 1530 1532 1533 1534 1535 1536 1537 1538 1539 1540
1458 1464 1469 1468 1467 1469 1470 1468 1468 1468 1466 1466 1470 1476 1476 1472 1469 1469 1469 1469 1467 1465 1467 1468 1470 1477 1481 1480 1481 1483 1483 1484 1484 1485 1486 1486 1486 1486 1487 1486 1487 1488 1488 1487 1487 1487 1487 1487 1487 1487 1487 1489 1490 1490 1489 1489 1490 1490 1490 1493 1496 1498 1500 1501 1501 1504 1507 1509 1512 1514 1515 1517 1520 1523 1525 1528 1530 1531 1532 1534 1535 1536 1537 1538 1539 1540
1459 1464 1468 1468 1466 1470 1474 1471 1468 1468 1466 1464 1469 1478 1480 1476 1474 1474 1473 1472 1469 1467 1469 1470 1472 1479 1484 1483 1483 1485 1486 1486 1487 1488 1489 1489 1489 1489 1489 1491 1492 1492 1491 1491 1490 1491 1490 1490 1489 1489 1489 1490 1490 1490 1490 1490 1491 1491 1492 1494 1496 1498 1499 1500 1501 1504 1507 1509 1511 1513 1514 1516 1520 1523 1526 1528 1530 1531 1532 1533 1534 1535 1536 1537 1538 1539
1461 1463 1466 1467 1467 1472 1476 1474 1471 1469 1466 1468 1477 1484 1485 1483 1481 1478 1475 1474 1471 1469 1469 1471 1473 1479 1484 1483 1484 1488 1490 1489 1491 1492 1492 1493 1493 1492 1492 1494 1496 1495 1494 1494 1494 1493 1493 1493 1492 1492 1491 1491 1491 1491 1491 1493 1493 1493 1494 1495 1497 1499 1499 1500 1502 1505 1507 1509 1510 1511 1513 1515 1518 1521 1524 1527 1528 1529 1530 1532 1533 1534 1535 1537 1538 1538
1463 1463 1465 1467 1469 1474 1478 1476 1472 1471 1472 1478 1485 1486 1485 1484 1483 1480 1478 1477 1475 1472 1472 1473 1476 1481 1484 1483 1485 1489 1492 1493 1495 1495 1495 1496 1497 1496 1496 1498 1498 1497 1496 1497 1497 1497 1497 1496 1496 1495 1495 1494 1493 1493 1494 1495 1496 1497 1496 1497 1499 1500 1500 1502 1504 1505 1506 1508 1509 1511 1513 1515 1518 1520 1523 1525 1526 1527 1529 1530 1532 1533 1535 1536 1537 1538
1463 1464 1467 1469 1470 1474 1478 1475 1471 1473 1479 1484 1486 1485 1483 1483 1483 1482 1481 1480 1478 1476 1476 1479 1481 1483 1484 1485 1487 1489 1492 1495 1496 1497 1498 1498 1499 1500 1501 1501 1500 1499 1499 1500 1500 1501 1501 1500 1500 1499 1499 1499 1498 1497 1497 1497 1498 1498 1499 1500 1501 1502 1502 1503 1505 1507 1508 1509 1511 1513 1515 1516 1519 1521 1523 1524 1524 1526 1527 1529 1531 1533 1534 1536 1537 1538
1462 1463 1467 1471 1472 1474 1476 1474 1472 1478 1484 1485 1484 1484 1484 1483 1483 1482 1481 1482 1483 1481 1480 1483 1487 1487 1488 1489 1489 1490 1492 1493 1495 1499 1500 1500 1503 1504 1504 1504 1503 1502 1502 1502 1502 1503 1503 1504 1504 1503 1503 1504 1504 1502 1501 1502 1502 1501 1502 1503 1504 1505 1506 1507 1508 1510 1511 1511 1514 1516 1517 1518 1520 1521 1522 1523 1524 1525 1527 1528 1530 1532 1534 1536 1537 1537
1461 1462 1464 1469 1474 1476 1477 1478 1479 1481 1484 1486 1487 1488 1488 1488 1488 1487 1485 1485 1486 1485 1483 1485 1489 1491 1492 1492 1493 1494 1494 1493 1496 1502 1503 1503 1506 1508 1507 1507 1506 1505 1505 1505 1504 1504 1505 1506 1506 1506 1506 1507 1507 1506 1506 1507 1507 1506 1506 1508 1509 1509 1510 1510 1511 1513 1515 1515 1517 1519 1520 1521 1521 1522 1522 1524 1526 1527 1528 1529 1531 1532 1534 1535 1536 1536
1461 1461 1461 1465 1473 1476 1475 1478 1480 1480 1483 1489 1491 1491 1490 1489 1489 1488 1488 1487 1487 1487 1487 1486 1489 1493 1495 1495 1496 1496 1494 1496 1502 1507 1507 1506 1508 1510 1510 1509 1509 1508 1508 1507 1506 1506 1506 1507 1508 1508 1509 1509 1508 1509 1509 1510 1510 1509 1510 1511 1513 1514 1514 1514 1515 1518 1519 1520 1521 1522 1522 1523 1523 1523 1524 1526 1527 1528 1529 1530 1531 1532 1533 1534 1534 1535
1462 1464 1463 1466 1475 1477 1475 1478 1483 1485 1489 1493 1492 1490 1489 1488 1488 1488 1486 1486 1489 1490 1489 1489 1491 1494 1496 1496 1497 1496 1496 1501 1508 1510 1508 1507 1509 1512 1512 1511 1511 1511 1509 1508 1507 1507 1508 1509 1510 1511 1511 1510 1510 1511 1512 1512 1512 1512 1512 1513 1515 1516 1517 1518 1520 1521 1523 1523 1524 1524 1524 1524 1525 1525 1526 1528 1528 1528 1529 1529 1530 1531 1532 1532 1533 1534
1465 1467 1468 1472 1481 1485 1483 1487 1491 1492 1493 1493 1491 1489 1487 1487 1488 1485 1481 1485 1492 1493 1492 1492 1493 1495 1497 1498 1498 1497 1498 1502 1508 1509 1508 1509 1511 1513 1514 1514 1513 1512 1511 1509 1509 1509 1510 1511 1512 1512 1512 1512 1513 1514 1514 1514 1514 1514 1514 1516 1517 1518 1519 1521 1522 1523 1524 1524 1524 1525 1526 1526 1527 1527 1528 1529 1530 1530 1531 1531 1531 1532 1532 1532 1532 1533
1474 1475 1478 1482 1486 1488 1489 1492 1495 1495 1494 1494 1491 1489 1487 1486 1485 1484 1484 1490 1494 1494 1495 1496 1496 1497 1499 1499 1499 1500 1501 1502 1505 1508 1510 1511 1513 1515 1516 1515 1514 1513 1512 1511 1511 1511 1512 1513 1514 1514 1515 1515 1517 1517 1517 1517 1516 1516 1517 1518 1518 1520 1521 1523 1524 1525 1525 1525 1525 1526 1526 1526 1527 1527 1528 1529 1530 1530 1531 1531 1532 1533 1533 1533 1533 1533
1483 1484 1485 1488 1491 1492 1494 1494 1494 1494 1495 1494 1491 1488 1486 1485 1486 1489 1493 1495 1494 1495 1497 1499 1499 1500 1501 1501 1501 1502 1504 1506 1507 1509 1512 1514 1515 1516 1517 1516 1516 1515 1514 1514 1514 1514 1514 1515 1515 1516 1517 1518 1519 1519 1519 1519 1518 1519 1520 1520 1520 1522 1523 1524 1525 1525 1526 1526 1526 1526 1526 1526 1527 1527 1527 1528 1528 1529 1530 1530 1531 1532 1532 1532 1531 1531
1490 1489 1491 1495 1496 1495 1495 1494 1494 1496 1497 1495 1492 1488 1487 1489 1491 1494 1495 1494 1495 1497 1499 1500 1501 1502 1502 1503 1505 1506 1507 1509 1510 1512 1514 1516 1517 1518 1518 1518 1517 1517 1517 1518 1518 1518 1517 1517 1517 1518 1519 1520 1520 1521 1521 1520 1520 1520 1521 1521 1522 1524 1525 1525 1525 1526 1526 1526 1525 1526 1526 1526 1526 1526 1526 1527 1527 1528 1528 1529 1529 1529 1530 1530 1529 1529
1493 1491 1493 1499 1498 1495 1496 1499 1501 1502 1501 1499 1495 1494 1493 1494 1494 1494 1494 1495 1498 1499 1500 1501 1504 1504 1504 1505 1508 1509 1511 1512 1513 1515 1517 1518 1519 1519 1519 1519 1519 1520 1520 1520 1520 1520 1520 1519 1518 1519 1520 1521 1521 1522 1522 1521 1521 1522 1522 1522 1524 1525 1525 1525 1526 1526 1526 1525 1525 1525 1525 1525 1525 1525 1525 1525 1525 1525 1526 1526 1527 1527 1527 1527 1527 1527
1496 1494 1494 1499 1501 1499 1501 1504 1505 1504 1503 1501 1499 1498 1497 1496 1496 1495 1496 1497 1500 1502 1502 1504 1506 1507 1507 1508 1510 1512 1514 1515 1517 1518 1519 1520 1521 1521 1520 1521 1521 1521 1522 1522 1522 1522 1521 1520 1520 1520 1521 1521 1522 1522 1522 1522 1522 1523 1523 1524 1525 1525 1525 1525 1525 1524 1524 1524 1524 1524 1524 1525 1524 1524 1524 1524 1523 1523 1523 1523 1523 1524 1524 1524 1524 1524
1497 1496 1496 1499 1502 1502 1503 1505 1505 1504 1503 1502 1500 1499 1498 1498 1498 1498 1498 1499 1502 1504 1505 1506 1508 1510 1510 1511 1512 1514 1516 1518 1519 1521 1521 1522 1522 1522 1522 1523 1523 1523 1524 1523 1523 1523 1523 1522 1522 1522 1522 1522 1523 1523 1523 1524 1524 1524 1524 1525 1525 1525 1525 1525 1524 1524 1524 1524 1523 1523 1523 1523 1523 1523 1523 1522 1522 1522 1521 1521 1521 1521 1521 1521 1521 1521
1497 1496 1498 1500 1502 1504 1506 1507 1506 1505 1505 1504 1502 1501 1501 1500 1501 1501 1501 1502 1504 1506 1507 1509 1510 1512 1512 1513 1514 1515 1518 1520 1520 1521 1523 1523 1523 1523 1524 1524 1524 1525 1525 1524 1524 1524 1523 1523 1523 1523 1523 1524 1524 1525 1525 1525 1525 1525 1526 1526 1526 1526 1526 1525 1525 1524 1524 1524 1523 1523 1523 1522 1522 1521 1521 1521 1520 1520 1520 1519 1519 1519 1519 1519 1519 1519
1498 1497 1500 1503 1505 1506 1507 1508 1507 1506 1506 1506 1504 1504 1503 1503 1504 1504 1504 1505 1506 1507 1509 1511 1512 1513 1514 1515 1515 1516 1519 1520 1521 1522 1523 1524 1523 1524 1524 1524 1525 1525 1525 1525 1525 1525 1524 1524 1524 1524 1525 1525 1526 1526 1526 1526 1526 1527 1527 1527 1527 1527 1526 1526 1525 1525 1524 1524 1523 1523 1522 1522 1521 1520 1520 1519 1519 1519 1518 1517 1517 1517 1517 1517 1517 1517
1499 1499 1503 1505 1507 1508 1508 1508 1508 1508 1508 1508 1507 1507 1507 1507 1507 1507 1508 1509 1509 1510 1511 1512 1513 1514 1515 1516 1517 1518 1519 1520 1522 1523 1523 1524 1524 1524 1524 1524 1525 1525 1525 1525 1525 1525 1525 1524 1524 1525 1525 1526 1526 1527 1527 1527 1527 1527 1528 1528 1527 1527 1527 1526 1526 1525 1524 1524 1523 1523 1522 1521 1520 1519 1519 1518 1518 1517 1516 1515 1515 1515 1515 1514 1514 1514
1501 1503 1506 1506 1507 1509 1508 1507 1507 1508 1509 1510 1510 1510 1510 1510 1510 1510 1511 1511 1512 1512 1513 1514 1515 1517 1517 1518 1519 1519 1520 1521 1523 1523 1524 1524 1524 1524 1524 1525 1525 1525 1526 1526 1525 1526 1525 1525 1525 1526 1526 1527 1527 1528 1528 1528 1528 1528 1528 1528 1528 1528 1528 1527 1526 1526 1525 1524 1523 1523 1522 1521 1519 1519 1518 1517 1516 1516 1516 1515 1514 1513 1513 1513 1512 1512
1503 1505 1506 1505 1506 1508 1507 1507 1508 1509 1510 1511 1512 1511 1512 1512 1512 1512 1513 1513 1514 1514 1515 1516 1516 1518 1519 1520 1520 1521 1521 1522 1523 1524 1524 1524 1524 1525 1525 1526 1526 1526 1526 1526 1526 1526 1526 1526 1527 1527 1527 1527 1528 1528 1528 1529 1528 1529 1529 1529 1529 1529 1528 1528 1527 1526 1525 1524 1523 1522 1521 1520 1519 1518 1517 1516 1515 1515 1515 1515 1514 1513 1512 1512 1511 1511